This is the latest recevied weather packets stored in our database for station/object K7SPS-10. If no packets are shown the sender has not sent any weather packets the latest 10 day(s).
| Time | Temp. | Humidity | Pressure | Rain* | Wind** | Luminosity | Snow |
|---|---|---|---|---|---|---|---|
| 1777673670 | 23.33° C | 29% | 1019 hPa | 0 mm | - | 600 W/m² | - |
| 1777673368 | 22.78° C | 30% | 1019 hPa | 0 mm | - | 625 W/m² | - |
| 1777673066 | 23.33° C | 30% | 1018.9 hPa | 0 mm | - | 650 W/m² | - |
| 1777672761 | 23.33° C | 29% | 1019.1 hPa | 0 mm | - | 653 W/m² | - |
| 1777672458 | 23.33° C | 28% | 1019.2 hPa | 0 mm | - | 668 W/m² | - |
| 1777672154 | 23.89° C | 28% | 1019.4 hPa | 0 mm | - | 674 W/m² | - |
| 1777671849 | 23.33° C | 30% | 1019.3 hPa | 0 mm | - | 685 W/m² | - |
| 1777671545 | 22.78° C | 29% | 1019.3 hPa | 0 mm | - | 657 W/m² | - |
| 1777671242 | 23.33° C | 28% | 1019.7 hPa | 0 mm | - | 669 W/m² | - |
| 1777670937 | 22.78° C | 32% | 1019.5 hPa | 0 mm | - | 701 W/m² | - |
| 1777670634 | 23.89° C | 30% | 1019.5 hPa | 0 mm | - | 706 W/m² | - |
| 1777670331 | 22.78° C | 32% | 1019.7 hPa | 0 mm | - | 717 W/m² | - |
| 1777670029 | 23.33° C | 35% | 1019.7 hPa | 0 mm | - | 731 W/m² | - |
| 1777669726 | 23.33° C | 31% | 1019.7 hPa | 0 mm | - | 738 W/m² | - |
| 1777669423 | 22.22° C | 32% | 1019.9 hPa | 0 mm | - | 745 W/m² | - |
| 1777669119 | 22.22° C | 31% | 1019.8 hPa | 0 mm | - | 754 W/m² | - |
| 1777668816 | 22.78° C | 35% | 1020 hPa | 0 mm | - | 755 W/m² | - |
| 1777668513 | 22.78° C | 35% | 1019.9 hPa | 0 mm | - | 740 W/m² | - |
| 1777668209 | 22.78° C | 35% | 1020 hPa | 0 mm | - | 764 W/m² | - |
| 1777667906 | 22.78° C | 33% | 1020 hPa | 0 mm | - | 761 W/m² | - |
| 1777667603 | 22.22° C | 37% | 1020.2 hPa | 0 mm | - | 764 W/m² | - |
| 1777667300 | 22.78° C | 32% | 1020.6 hPa | 0 mm | - | 768 W/m² | - |
| 1777666997 | 22.22° C | 35% | 1020.4 hPa | 0 mm | - | 785 W/m² | - |
| 1777666694 | 21.67° C | 36% | 1020.5 hPa | 0 mm | - | 786 W/m² | - |
| 1777666391 | 22.22° C | 36% | 1020.5 hPa | 0 mm | - | 788 W/m² | - |
* Rain latest hour (hover to see other rain measurements)
** Current wind speed in m/s (hover to see current wind gust speed)